Location: Im Fang
(46.6019°N, 7.2397°E)
Time: 11:41:45
(UTC+00:00)

Cosmos 1954 Rocket - Pass Details

Date: 08 December 2019
Orbit: 751 x 782 km, 74.0° (Epoch: 19 January)

Event Time Altitude Azimuth Distance (km) Brightness Sun altitude
Exits shadow 05:29:26 19° 317° (NW) 1,774 5.4 -15.2°
Maximum altitude 05:32:46 42° 256° (WSW) 1,104 4.4 -14.6°
Drops below altitude 10° 05:37:42 10° 187° (S) 2,320 6.6 -13.8°
Sets 05:40:11 0° 181° (S) 3,247 7.5 -13.4°
